{"data":{"norad_id":60549,"epoch":"2026-09-22T16:20:47.935104Z","epoch_age_seconds":100517,"freshness":"FRESH","line1":"1 60549U 24149CK  26265.68111036  .00002478  00000+0  21240-3 0  9993","line2":"2 60549  97.6725 340.6014 0006060 110.8695 249.3177 14.98428451114670","mean_motion":14.98428451,"eccentricity":0.000606,"inclination_deg":97.6725,"raan_deg":340.6014,"arg_perigee_deg":110.8695,"mean_anomaly_deg":249.3177,"bstar":0.0002124,"rev_number":11467,"period_min":96.100684623213,"perigee_km":567.53982361339,"apogee_km":575.96308842208,"semimajor_km":6949.8884560177,"source":"CELESTRAK","updated_at":"2026-09-23T09:00:20.673618Z"}}